Hourly Data Report for October 03, 2016

All times are specified in Local Standard Time (LST). Add 1 hour to adjust for Daylight Saving Time where and when it is observed.

PENTICTON A
BRITISH COLUMBIA

49°27'45.000" N
119°36'08.000" W
344.40 m
1126146
71889
YYF

Download Data

Hourly Data (October 2016)
Hourly Data Report for October 3, 2016
Temp Definition
°C
Dew Point Temp Definition
°C
Rel Hum Definition
%
Wind Dir Definition
10's deg

Wind Spd Definition
km/h
Visibility Definition
km
Stn Press Definition
kPa
Hmdx Definition


Wind Chill Definition


Weather Definition


TIME
00:00 Legend Double Dagger 5.8 1.5 74 34 12 24.1 97.08     LegendNANA
01:00 Legend Double Dagger 5.6 1.3 74 35 10 24.1 97.08     Clear
02:00 Legend Double Dagger 5.1 1.0 75 35 13 24.1 97.10     LegendNANA
03:00 Legend Double Dagger 3.9 0.8 80 36 12 24.1 97.11     LegendNANA
04:00 Legend Double Dagger 4.6 1.1 78 1 14 24.1 97.13     Clear
05:00 Legend Double Dagger 4.6 1.1 78 36 15 24.1 97.13     LegendNANA
06:00 Legend Double Dagger 3.5 0.6 81 36 14 24.1 97.13     LegendNANA
07:00 Legend Double Dagger 4.5 1.4 80 36 13 24.1 97.13     Clear
08:00 Legend Double Dagger 9.7 3.9 67 35 13 24.1 97.15     LegendNANA
09:00 Legend Double Dagger 12.0 5.7 65 36 14 24.1 97.14     LegendNANA
10:00 Legend Double Dagger 12.7 5.2 60 35 16 24.1 97.09     Mainly Clear
11:00 Legend Double Dagger 14.4 5.3 54 36 12 24.1 97.01     LegendNANA
12:00 Legend Double Dagger 14.1 5.0 54 36 12 24.1 96.98     LegendNANA
13:00 Legend Double Dagger 16.4 5.5 48 1 14 24.1 96.88     Mostly Cloudy
14:00 Legend Double Dagger 16.8 5.5 47 1 12 24.1 96.85     LegendNANA
15:00 Legend Double Dagger 15.6 5.6 51 35 7 24.1 96.85     LegendNANA
16:00 Legend Double Dagger 15.5 5.8 52 35 11 24.1 96.84     Mostly Cloudy
17:00 Legend Double Dagger 14.9 6.3 56 32 7 24.1 96.84     LegendNANA
18:00 Legend Double Dagger 12.1 6.0 66 4 3 24.1 96.83     LegendNANA
19:00 Legend Double Dagger 9.3 5.3 76 36 1 24.1 96.83     Mainly Clear
20:00 Legend Double Dagger 6.3 2.9 79 1 8 24.1 96.83     LegendNANA
21:00 Legend Double Dagger 5.5 2.3 80 36 4 24.1 96.82     LegendNANA
22:00 Legend Double Dagger 4.9 1.2 77 32 3 24.1 96.84     Mainly Clear
23:00 Legend Double Dagger 6.1 1.8 74 1 6 24.1 96.85     LegendNANA

Notes on Data Quality.

Legend

  • E = Estimated
  • M = Missing
  • NA = Not Available
  • ‡ = Partner data that is not subject to review by the National Climate Archives
Date modified: